Regional Weather Roundup
Issued by NWS

Home | Current Version | Previous Version | Text Only | Print | Product List | Glossary Off
Versions: 1 2 3 4 5 6 7 8 9 10 11 12 13 14 15 16 17 18 19 20 21 22 23 24 25 26 27 28 29 30 31 32 33 34 35 36 37 38 39 40 41 42 43 44 45 46 47 48 49 50

000
ASUS43 KMPX 250501
RWRMN
WEATHER ROUNDUP FOR MINNESOTA
NATIONAL WEATHER SERVICE TWIN CITIES/CHANHASSEN MN
1200 AM CDT TUE JUL 25 2017


NOTE: "FAIR" INDICATES FEW OR NO CLOUDS BELOW 12,000 FEET WITH NO
SIGNIFICANT WEATHER AND/OR OBSTRUCTIONS TO VISIBILITY. N/A MEANS
CURRENT SKY AND/OR WEATHER CONDITIONS ARE NOT AVAILABLE.

MNZ060>063-068>070-250600-
   Twin Cities Metro

CITY           SKY/WX    TMP DP  RH WIND       PRES   REMARKS
TWIN CITIES    CLOUDY    69  60  73 S7        30.06R
ST PAUL        CLOUDY    67  62  84 S6        30.06R
CRYSTAL        CLOUDY    69  58  67 SE14      30.02F
BLAINE         CLOUDY    70  61  73 SE9       30.04F
LAKEVILLE      PTCLDY    63  63 100 CALM      30.06R
EDEN PRAIRIE   CLOUDY    68  62  81 SE7       30.05R
SOUTH ST PAUL  MOCLDY    68  60  75 S7        30.05S
LAKE ELMO      FAIR      64  61  88 CALM      30.07S
$$
MNZ001>005-007-008-013>017-022>024-027-028-250600-
   Northwest Minnesota

CITY           SKY/WX    TMP DP  RH WIND       PRES   REMARKS
BEMIDJI        CLEAR     64  60  86 S7        29.97F
HALLOCK        CLOUDY    66  63  88 S10       29.84F
ROSEAU         CLEAR     64  61  88 S10       29.90F
WARROAD        CLEAR     64  61  88 S7        29.92R
CROOKSTON      CLOUDY    66  63  88 SE9       29.89F
FOSSTON        CLOUDY    64  59  82 S7        29.95R
DETROIT LAKES  CLOUDY    68  63  83 S12       29.95F
MOORHEAD       CLOUDY    70  63  78 SE13      29.89F
PARK RAPIDS    CLEAR     66  60  81 SE8       29.97F
MAHNOMEN       FAIR      66  61  85 SE8       29.93S
$$
MNZ006-009>011-018-025>026-250600-
   North Central Minnesota

CITY           SKY/WX    TMP DP  RH WIND       PRES   REMARKS
BAUDETTE       CLEAR     64  59  83 S9        29.95R
FLAG ISLAND    CLEAR     70  63  78 S12G18    29.91R
INTL FALLS     CLEAR     61  56  83 SE6       29.97S
WASKISH        CLEAR     64  61  88 S5        29.96S
BIG FORK       CLEAR     63  57  82 SE3       29.99S
LONGVILLE      PTCLDY    61  59  94 SE3       30.00R
GRAND RAPIDS   PTCLDY    63  59  87 SE6       30.02S
CRANE LAKE     CLEAR     55  55 100 CALM      30.03R
ORR            CLOUDY    61  54  77 SE5       30.00R
COOK           CLOUDY    61  55  82 SE3       30.02F
WALKER         FAIR      65  60  83 S5        29.99S
$$
MNZ012-019>021-037-250600-
   Northeast Minnesota

CITY           SKY/WX    TMP DP  RH WIND       PRES   REMARKS
DULUTH         CLOUDY    59  55  87 SE5       30.05R
ELY            PTCLDY    61  52  72 SE5       30.05R
HIBBING        PTCLDY    58  55  90 SE7       30.03R
EVELETH        PTCLDY    58  51  78 CALM      30.05R
DULUTH HARBOR  CLOUDY    63  59  88 NE6       30.05R
TWO HARBORS    PTCLDY    59  54  82 NE5       30.04S
GRAND MARAIS     N/A     53  51  93 CALM      30.06R
G MARAIS ARPRT CLOUDY    52  46  82 CALM      30.10S
$$
MNZ029>031-032-039>041-046>048-054>057-064-250600-
   West Central Minnesota

CITY           SKY/WX    TMP DP  RH WIND       PRES   REMARKS
FERGUS FALLS   PTCLDY    70  63  78 S16G22    29.93F
WHEATON        CLOUDY    70  63  78 SE12      29.95R
ALEXANDRIA     CLOUDY    67  63  87 SE9       30.00R
ELBOW LAKE     FAIR      67  63  86 E12       29.97R
WADENA         CLEAR     64  61  88 SE6       29.98F
GLENWOOD       CLOUDY    66  63  88 SE9       29.99R
APPLETON       CLOUDY    72  61  68 SE9G18    29.96R
BENSON         CLOUDY    72  63  73 S13G22    29.98R
ORTONVILLE     LGT RAIN  68  64  88 SE8       29.96R
MADISON        CLOUDY    73  64  73 SE13      29.96R
WILLMAR        FAIR      72  63  73 SE14      30.00F
$$
MNZ033>034-036-042>043-049>051-058-059-250600-
   Central Minnesota

CITY           SKY/WX    TMP DP  RH WIND       PRES   REMARKS
ST CLOUD       CLOUDY    68  62  81 S12       29.99R
SAUK CENTRE    FAIR      65  62  89 SE7       29.99R
PAYNESVILLE    LGT RAIN  68  63  84 S12G17    30.00R
AITKIN         CLOUDY    66  61  82 SE7       29.98F
PINE RIVER     CLOUDY    66  61  82 SW3       30.04R
BRAINERD       PTCLDY    67  60  78 SW6       30.01R
STAPLES        PTCLDY    64  59  82 CALM      30.00S
LONG PRAIRIE   FAIR      64  61  88 SE10      30.00R
LITTLE FALLS   PTCLDY    68  59  73 CALM      30.00R
LITCHFIELD     CLOUDY    72  63  73 SE12      30.01F
BUFFALO        CLOUDY    67  60  78 SE5       30.03S
MAPLE LAKE     LGT RAIN  69  63  80 S5        30.02S
HUTCHINSON     CLOUDY    67  63  86 E8        30.02F
$$
MNZ037-044-045-052-053-250600-
   East Central Minnesota

CITY           SKY/WX    TMP DP  RH WIND       PRES   REMARKS
PRINCETON      LGT RAIN  66  63  88 SE7       30.01F
MORA           CLOUDY    64  59  82 SE7       30.02F
CAMBRIDGE      CLOUDY    70  57  64 SE7       30.01F
RUSH CITY      CLOUDY    64  59  85 SE6       30.04F
MOOSE LAKE     MOCLDY    64  57  77 CALM      30.02S
HINCKLEY       FAIR      64  61  88 SE5       30.03F
CLOQUET        PTCLDY    61  54  77 E3        30.05R
MCGREGOR       CLOUDY    64  59  82 SE10      30.01F
$$
MNZ071>073-080-081-089-090-097-098-250600-
   Southwest Minnesota

CITY           SKY/WX    TMP DP  RH WIND       PRES   REMARKS
MONTEVIDEO     CLOUDY    70  63  78 S13       29.97R
GRANITE FALLS  CLOUDY    73  64  73 E15G22    29.98R
CANBY          CLOUDY    70  65  83 E8        29.95S
MARSHALL       CLOUDY    70  64  81 E7        29.98R
REDWOOD FALLS  PTCLDY    69  62  78 E12       29.99F
OLIVIA         CLOUDY    70  63  78 SE12G17   29.99R
PIPESTONE      CLOUDY    72  63  73 S14G20    29.94F
WINDOM         CLEAR     70  61  73 SE15G21   29.98F
WORTHINGTON    CLEAR     67  63  87 SE9       29.98F
JACKSON        CLEAR     68  61  77 SE12      30.00F
TRACY          CLOUDY    70  65  85 SE10G16   29.95F
SLAYTON        CLEAR     66  62  86 SE12      29.97F
$$
MNZ065>067-074>077-082>085-091>093-250600-
   South Central Minnesota

CITY           SKY/WX    TMP DP  RH WIND       PRES   REMARKS
MANKATO        CLEAR     66  63  90 SE10      30.03S
NEW ULM        CLOUDY    68  61  77 SE12      29.98F
ST JAMES       CLOUDY    64  63  94 SE9       30.01F
FAIRMONT       CLEAR     67  63  87 SE9       30.02S
GLENCOE        CLOUDY    67  64  91 SE8       30.02F
FARIBAULT      CLEAR     66  61  82 SE3       30.06R
OWATONNA       CLEAR     64  61  88 SE8       30.05S
WASECA         CLEAR     63  59  88 SE8       30.06S
ALBERT LEA     CLEAR     66  61  82 SE8       30.06S
$$
MNZ078>079-086>088-094>096-250600-
   Southeast Minnesota

CITY           SKY/WX    TMP DP  RH WIND       PRES   REMARKS
ROCHESTER      CLEAR     60  59  96 SE5       30.09R
RED WING       CLEAR     68  57  68 SE7       30.05S
STANTON        CLEAR     66  60  79 S3        30.06R
DODGE CENTER   CLEAR     61  57  88 SE6       30.08R
WINONA         PTCLDY    63  57  82 S3        30.08R
AUSTIN         CLEAR     63  57  82 SE5       30.07S
PRESTON        CLEAR     62  58  88 SE6       30.10R
$$
ABBREVIATIONS USED IN REMARKS
   TC - TEMPERATURES IN CELSIUS
  WCI - WIND CHILL INDEX
   HX - HEAT INDEX
  VSB - VISIBILITY
$$




USA.gov is the U.S. government's official web portal to all federal, state and local government web resources and services.